Stations météo

réclame
Mon MeteoGroup
Chievres, Belgique (6432): Température de l'air & dewpoint: 11.06.2019 21:00:00 - 17.06.2019 21:00:00 (CEST)Chievres, Belgique (6432): Vitesse du vent & gusts: 11.06.2019 21:00:00 - 17.06.2019 21:00:00 (CEST)Chievres, Belgique (6432): Direction du vent: 11.06.2019 21:00:00 - 17.06.2019 21:00:00 (CEST)Chievres, Belgique (6432): reduced air pressure: 11.06.2019 21:00:00 - 17.06.2019 21:00:00 (CEST)Chievres, Belgique (6432): visibility: 11.06.2019 21:00:00 - 17.06.2019 21:00:00 (CEST)
Date & Time tt [°C] td [°C] ff [km/h] ff [knt] fx [km/h] fx [knt] dd ppp [hPa] vv [km]
17.06.2019 21:00:00 22,1 14,9 4 2 7 4 N 1017,2 20
17.06.2019 20:00:00 23,4 13,5 7 4 - - W 1017,5 20
17.06.2019 19:00:00 24,2 13,2 7 4 14 8 WSW 1017,7 20
17.06.2019 18:00:00 25,3 13,3 4 2 14 8 N 1018,0 19
17.06.2019 17:00:00 24,6 14,3 7 4 - - SSW 1018,3 19
17.06.2019 16:00:00 24,3 13,6 7 4 22 12 SW 1018,7 20
17.06.2019 15:00:00 23,9 13,0 7 4 18 10 WSW 1019,2 20
17.06.2019 14:00:00 23,2 13,5 11 6 - - SSW 1019,7 19
17.06.2019 13:00:00 23,0 12,5 7 4 18 10 SSW 1020,0 20
17.06.2019 12:00:00 21,9 13,2 11 6 22 12 SSW 1020,3 16
17.06.2019 11:00:00 21,9 14,3 11 6 - - SSW 1020,7 20
17.06.2019 10:00:00 20,1 13,9 7 4 11 6 S 1021,0 19
17.06.2019 09:00:00 - - - - - - - - -
17.06.2019 08:00:00 15,5 13,1 4 2 - - N 1021,0 -
17.06.2019 07:00:00 14,1 12,6 4 2 11 6 N 1021,1 -
17.06.2019 06:00:00 13,3 12,1 4 2 11 6 N 1020,8 -
17.06.2019 05:00:00 12,7 12,1 4 2 - - N 1020,7 -
17.06.2019 04:00:00 12,8 12,4 4 2 7 4 N 1021,1 -
17.06.2019 03:00:00 13,1 12,8 4 2 7 4 N 1021,2 -
17.06.2019 02:00:00 12,9 12,8 4 2 - - N 1021,5 -
17.06.2019 01:00:00 12,7 12,4 4 2 4 2 N 1021,5 -
17.06.2019 00:00:00 14,3 13,7 4 2 7 4 N 1021,7 -
16.06.2019 23:00:00 15,3 14,7 4 2 - - N 1021,6 -
16.06.2019 22:00:00 17,2 15,1 4 2 4 2 N 1021,2 -
16.06.2019 21:00:00 20,0 14,9 4 2 7 4 N 1021,2 -
16.06.2019 20:00:00 19,3 15,0 4 2 - - N 1021,2 -
16.06.2019 19:00:00 19,8 14,1 4 2 11 6 N 1021,2 -
16.06.2019 18:00:00 15,9 15,0 7 4 40 21 WSW 1021,5 -
16.06.2019 17:00:00 20,2 13,5 14 8 - - SSW 1020,7 -
16.06.2019 16:00:00 20,9 12,8 18 10 29 16 SSW 1021,0 -
16.06.2019 15:00:00 19,5 13,3 18 10 25 14 SSW 1021,2 -
16.06.2019 14:00:00 18,8 12,3 14 8 - - SW 1020,8 -
16.06.2019 13:00:00 19,6 12,7 14 8 25 14 WSW 1021,2 -
16.06.2019 12:00:00 18,1 12,6 18 10 32 18 WSW 1021,2 -
16.06.2019 11:00:00 16,6 12,8 14 8 - - SW 1020,8 -
16.06.2019 10:00:00 15,8 12,8 18 10 29 16 SW 1020,7 -
16.06.2019 09:00:00 15,2 12,5 18 10 29 16 SW 1020,6 -
16.06.2019 08:00:00 14,9 12,3 14 8 - - SSW 1019,8 -
16.06.2019 07:00:00 14,3 11,8 14 8 22 12 SSW 1019,5 -
16.06.2019 06:00:00 12,3 10,7 14 8 22 12 SSW 1019,3 -
16.06.2019 05:00:00 12,5 10,3 14 8 - - S 1018,8 -
16.06.2019 04:00:00 12,8 10,1 14 8 22 12 SSW 1018,7 -
16.06.2019 03:00:00 12,6 10,1 14 8 18 10 SSW 1018,5 -
16.06.2019 02:00:00 12,6 10,5 11 6 - - S 1018,3 -
16.06.2019 01:00:00 13,1 10,9 11 6 11 6 SSW 1018,1 -
16.06.2019 00:00:00 13,8 11,5 7 4 11 6 SSW 1017,7 -
15.06.2019 23:00:00 15,5 11,6 7 4 - - SSW 1017,2 -
15.06.2019 22:00:00 15,7 12,1 7 4 14 8 SSW 1017,0 -
15.06.2019 21:00:00 18,0 12,6 7 4 11 6 SW 1016,3 -
15.06.2019 20:00:00 18,8 11,7 7 4 - - W 1016,1 -
15.06.2019 19:00:00 20,4 11,5 14 8 29 16 SSW 1015,8 -
15.06.2019 18:00:00 20,1 10,1 14 8 25 14 SSW 1015,7 -
15.06.2019 17:00:00 21,6 11,0 18 10 - - SW 1015,6 -
15.06.2019 16:00:00 21,5 13,9 7 4 32 18 WSW 1015,5 -
15.06.2019 15:00:00 21,3 14,8 4 2 22 12 N 1015,2 -
15.06.2019 14:00:00 19,1 15,2 4 2 - - N 1015,7 -
15.06.2019 13:00:00 17,7 15,5 11 6 18 10 WNW 1015,7 -
15.06.2019 12:00:00 15,7 14,4 11 6 22 12 WSW 1015,2 -
15.06.2019 11:00:00 14,8 14,1 14 8 - - W 1014,7 -
15.06.2019 10:00:00 14,6 14,3 14 8 18 10 SW 1014,2 -
15.06.2019 09:00:00 14,2 14,1 4 2 4 2 N 1013,6 7
15.06.2019 08:00:00 13,8 13,8 4 2 - - N 1012,7 3,0
15.06.2019 07:00:00 13,5 13,5 4 2 7 4 N 1012,5 3,5
15.06.2019 06:00:00 13,6 13,5 4 2 7 4 - 1012,2 2,5
15.06.2019 05:00:00 13,6 13,5 4 2 - - N 1011,7 2,5
15.06.2019 04:00:00 13,5 13,5 2 1 14 8 - 1012,0 1,5
15.06.2019 03:00:00 12,6 12,4 13 7 22 12 NNW 1012,2 4,6
15.06.2019 02:00:00 13,5 13,2 11 6 - - NNW 1012,2 4,9
15.06.2019 01:00:00 15,1 13,6 8 4 25 14 N 1012,2 4,9
15.06.2019 00:00:00 16,6 13,7 14 8 25 14 N 1012,6 20
14.06.2019 23:00:00 17,7 14,8 11 6 - - N 1013,0 19
14.06.2019 22:00:00 18,7 15,2 4 2 11 6 N 1012,7 20
14.06.2019 21:00:00 19,7 15,0 7 4 11 6 W 1012,5 20
14.06.2019 20:00:00 22,1 14,7 4 2 - - N 1012,5 19
14.06.2019 19:00:00 23,2 13,7 4 2 14 8 N 1012,7 20
14.06.2019 18:00:00 22,0 13,9 11 6 22 12 SSW 1013,0 20
14.06.2019 17:00:00 22,7 14,2 11 6 - - SW 1013,3 20
14.06.2019 16:00:00 22,5 14,8 18 10 29 16 SW 1013,7 20
14.06.2019 15:00:00 21,4 14,2 14 8 25 14 S 1014,3 20
14.06.2019 14:00:00 20,2 14,8 14 8 - - S 1014,7 20
14.06.2019 13:00:00 20,3 13,5 14 8 22 12 SSW 1014,7 17
14.06.2019 12:00:00 19,6 14,1 11 6 25 14 S 1014,6 20
14.06.2019 11:00:00 18,3 13,7 11 6 - - SSW 1014,2 20
14.06.2019 10:00:00 17,2 13,6 14 8 22 12 SSW 1013,7 19
14.06.2019 09:00:00 14,3 12,2 4 2 14 8 N 1013,1 18
14.06.2019 08:00:00 13,1 11,5 7 4 - - SSE 1014,0 20
14.06.2019 07:00:00 11,7 11,1 4 2 7 4 N 1013,7 14
14.06.2019 06:00:00 11,1 10,6 4 2 7 4 N 1013,3 16
14.06.2019 05:00:00 10,5 9,8 4 2 - - N 1012,8 9
14.06.2019 04:00:00 10,8 10,1 4 2 7 4 N 1012,7 13
14.06.2019 03:00:00 10,3 10,0 4 2 11 6 N 1013,0 5
14.06.2019 02:00:00 11,2 10,5 4 2 - - N 1013,2 16
14.06.2019 01:00:00 12,3 11,7 4 2 7 4 - 1013,6 7
14.06.2019 00:00:00 12,6 12,2 7 4 11 6 SE 1013,5 9
13.06.2019 23:00:00 13,3 12,4 7 4 - - WSW 1013,3 20
13.06.2019 22:00:00 13,3 12,2 11 6 22 12 SW 1012,3 10
13.06.2019 21:00:00 13,3 12,4 4 2 83 45 N 1012,1 20
13.06.2019 20:00:00 15,0 11,9 11 6 - - WSW 1011,2 20
13.06.2019 19:00:00 16,4 12,4 14 8 40 21 SW 1010,8 20
13.06.2019 18:00:00 17,3 12,3 18 10 32 18 S 1010,8 20
13.06.2019 17:00:00 16,1 12,6 22 12 - - SSW 1011,1 19
13.06.2019 16:00:00 13,3 11,4 22 12 50 27 WSW 1011,7 8
13.06.2019 15:00:00 16,7 11,4 25 14 47 25 SSW 1011,3 20
13.06.2019 14:00:00 16,1 11,6 29 16 - - S 1011,6 20
13.06.2019 13:00:00 15,4 9,8 25 14 47 25 S 1011,7 19
13.06.2019 12:00:00 16,4 9,6 29 16 47 25 SSW 1011,8 15
13.06.2019 11:00:00 15,1 10,2 25 14 - - SSW 1011,7 20
13.06.2019 10:00:00 14,2 9,6 25 14 43 23 SSW 1011,7 18
13.06.2019 09:00:00 13,0 9,8 22 12 36 19 SSW 1011,7 19
13.06.2019 08:00:00 12,2 9,5 22 12 - - SSW 1011,2 20
13.06.2019 07:00:00 11,8 9,6 21 11 32 18 S 1011,1 10
13.06.2019 06:00:00 11,4 9,6 22 12 36 19 SSW 1010,6 20
13.06.2019 05:00:00 11,6 10,0 18 10 - - S 1010,1 20
13.06.2019 04:00:00 11,6 10,1 18 10 25 14 SSW 1009,8 20
13.06.2019 03:00:00 11,1 10,1 11 6 18 10 S 1009,8 20
13.06.2019 02:00:00 11,3 9,9 7 4 - - SSE 1009,8 20
13.06.2019 01:00:00 11,6 9,9 11 6 18 10 S 1010,2 20
13.06.2019 00:00:00 12,2 10,2 11 6 18 10 S 1010,2 20
12.06.2019 23:00:00 13,3 10,6 11 6 - - S 1010,1 20
12.06.2019 22:00:00 13,5 10,3 11 6 14 8 S 1010,1 20
12.06.2019 21:00:00 14,8 10,7 7 4 22 12 S 1009,6 20
12.06.2019 20:00:00 15,6 11,4 11 6 - - SSW 1009,5 20
12.06.2019 19:00:00 14,3 11,6 18 10 36 19 SSW 1009,5 20
12.06.2019 18:00:00 13,6 10,2 21 11 29 16 SSE 1009,7 6
12.06.2019 17:00:00 16,2 11,3 7 4 - - S 1009,7 19
12.06.2019 16:00:00 17,1 11,2 11 6 25 14 WSW 1009,7 20
12.06.2019 15:00:00 16,0 12,1 14 8 25 14 SW 1010,5 18
12.06.2019 14:00:00 14,1 11,3 18 10 - - WSW 1010,5 17
12.06.2019 13:00:00 14,0 12,7 14 8 22 12 SW 1010,1 18
12.06.2019 12:00:00 13,6 12,9 4 2 14 8 N 1009,7 13
12.06.2019 11:00:00 13,4 12,5 4 2 - - N 1009,6 17
12.06.2019 10:00:00 12,8 12,5 4 2 7 4 N 1009,6 8
12.06.2019 09:00:00 12,5 12,2 4 2 11 6 N 1009,6 6
12.06.2019 08:00:00 12,5 12,4 4 2 - - N 1009,7 3,4
12.06.2019 07:00:00 12,5 12,4 4 2 4 2 N 1010,0 1,7
12.06.2019 06:00:00 12,5 12,2 4 2 14 8 N 1010,3 2,9
12.06.2019 05:00:00 12,5 11,9 7 4 - - E 1010,2 8
12.06.2019 04:00:00 13,0 12,3 7 4 14 8 E 1011,2 8
12.06.2019 03:00:00 13,1 10,9 7 4 7 4 E 1011,3 19
12.06.2019 02:00:00 11,8 10,0 4 2 - - N 1011,2 19
12.06.2019 01:00:00 12,2 9,6 4 2 4 2 N 1011,7 20
12.06.2019 00:00:00 13,1 10,4 4 2 7 4 N 1011,7 20
11.06.2019 23:00:00 13,8 10,5 4 2 - - N 1012,1 20
11.06.2019 22:00:00 15,5 10,2 7 4 11 6 ESE 1012,2 20
11.06.2019 21:00:00 17,6 9,5 7 4 18 10 E 1012,1 20

tt = Température de l'air
td = dewpoint
ff = Vitesse du vent
fx = gusts
dd = Direction du vent
ppp = reduced air pressure
vv = visibility

stations d'obs. à proximité